• Join FlightAware (Why Join?)
  • Login
  • US Flag GB Flag 
13:14 EDT


 

Airport Tracker/Info


-or-


 

Live Flight TrackerFlight Track Log ✈ SWA2336 ✈ 20-Apr-2013 ✈ KROC - KTPA

Flight Track Log - Related Links

Times and Time Zones

All times are in EDT time to prevent confusion due to time zone crossing. See the SWA2336 flight status page for this flight to view local times or setup timezone preferences in your user account.

Time Position Orientation Groundspeed Altitude Reporting Facility
EDT Latitude Longitude Course Direction KTS MPH feet Rate Location/Type
07:15 43.1014 -77.6942 194° South 142 163 1,500  Level Cleveland Center
07:16 43.0519 -77.7108 194° South 198 228 3,800 2,280 Climbing Cleveland Center
07:16 43.0125 -77.7183 188° South 241 277 5,600 2,820 Climbing Cleveland Center
07:17 42.9464 -77.7383 192° South 246 283 8,500 2,580 Climbing Cleveland Center
07:18 42.8736 -77.7558 190° South 246 283 10,800 2,280 Climbing Cleveland Center
07:19 42.7936 -77.8019 203° Southwest 275 316 13,100 2,520 Climbing Cleveland Center
07:20 42.7072 -77.8481 201° Southwest 309 356 15,900 3,240 Climbing Cleveland Center
07:21 42.6186 -77.8997 203° Southwest 337 388 19,600 3,540 Climbing Cleveland Center
07:22 42.5467 -77.9394 202° Southwest 331 381 23,000 2,820 Climbing Cleveland Center
07:23 42.4664 -77.9850 203° Southwest 326 375 25,300 1,980 Climbing Cleveland Center
07:24 42.3800 -78.0336 203° Southwest 332 382 27,000 840 Climbing Cleveland Center
07:25 42.2933 -78.0792 201° Southwest 332 382 27,000  Level Cleveland Center
07:26 42.2069 -78.1275 203° Southwest 332 382 27,000 240 Level Cleveland Center
07:27 42.1203 -78.1756 202° Southwest 332 382 27,500 1,140 Climbing Cleveland Center
07:28 42.0214 -78.2269 201° Southwest 340 391 29,300 2,040 Climbing Cleveland Center
07:29 41.9347 -78.2747 202° Southwest 345 397 31,600 1,920 Climbing Cleveland Center
07:30 41.8461 -78.3225 202° Southwest 345 397 33,200 1,320 Climbing Cleveland Center
07:31 41.7614 -78.3700 203° Southwest 345 397 34,300 960 Climbing Cleveland Center
07:32 41.6728 -78.4147 201° Southwest 345 397 35,200 1,080 Climbing Cleveland Center
07:33 41.5819 -78.4650 202° Southwest 350 403 36,500 1,140 Climbing Cleveland Center
07:34 41.4911 -78.5125 201° Southwest 350 403 37,500 600 Climbing Cleveland Center
07:35 41.4003 -78.5625 202° Southwest 350 403 37,800 240 Climbing Cleveland Center
07:36 41.3072 -78.6122 202° Southwest 350 403 38,000 60 Climbing Cleveland Center
07:37 41.2122 -78.6619 201° Southwest 350 403 38,000  Level Cleveland Center
07:38 41.1192 -78.7144 203° Southwest 355 409 38,000  Level Cleveland Center
07:39 41.0261 -78.7611 201° Southwest 361 415 38,000  Level Cleveland Center
07:40 40.9311 -78.8106 201° Southwest 367 422 38,000  Level Cleveland Center
07:41 40.8586 -78.8481 201° Southwest 367 422 38,000  Level Cleveland Center
07:42 40.7533 -78.9056 202° Southwest 367 422 38,000  Level Cleveland Center
07:43 40.6642 -78.9517 201° Southwest 367 422 38,000  Level Cleveland Center
07:44 40.5608 -79.0033 201° Southwest 362 417 38,000  Level Cleveland Center
07:45 40.4697 -79.0519 202° Southwest 362 417 38,000  Level Cleveland Center
07:46 40.3786 -79.0978 201° Southwest 362 417 38,000  Level Cleveland Center
07:47 40.2894 -79.1433 201° Southwest 352 405 38,000  Level Cleveland Center
07:48 40.1983 -79.1914 202° Southwest 352 405 38,000  Level Cleveland Center
07:49 40.1072 -79.2367 201° Southwest 352 405 38,000  Level Cleveland Center
07:50 40.0306 -79.2789 203° Southwest 347 399 38,000  Level Cleveland Center
07:51 39.9394 -79.3267 202° Southwest 347 399 38,000  Level Cleveland Center
07:52 39.8503 -79.3725 202° Southwest 346 398 38,000  Level Washington Center
07:53 39.7594 -79.4164 200° South 346 398 38,000  Level Washington Center
07:54 39.6703 -79.4628 202° Southwest 346 398 38,000  Level Washington Center
07:55 39.5772 -79.5092 201° Southwest 351 404 38,000  Level Washington Center
07:56 39.4900 -79.5556 202° Southwest 351 404 38,000  Level Washington Center
07:57 39.3969 -79.5986 200° South 356 410 38,000  Level Washington Center
07:58 39.3036 -79.6472 202° Southwest 356 410 38,000  Level Washington Center
07:59 39.2103 -79.6928 201° Southwest 356 410 38,000  Level Washington Center
08:00 39.1192 -79.7414 202° Southwest 356 410 38,000  Level Washington Center
08:01 39.0256 -79.7894 202° Southwest 356 410 38,000  Level Washington Center
08:02 38.9344 -79.8350 201° Southwest 362 417 38,000  Level Washington Center
08:03 38.8411 -79.8828 202° Southwest 362 417 38,000  Level Washington Center
08:04 38.7497 -79.9253 200° South 362 417 38,000  Level Washington Center
08:05 38.6650 -79.9656 200° South 356 410 38,000  Level Washington Center
08:06 38.5736 -80.0108 201° Southwest 356 410 38,000  Level Washington Center
08:07 38.4822 -80.0556 201° Southwest 356 410 38,000  Level Washington Center
08:08 38.3931 -80.0981 200° South 356 410 38,000  Level Washington Center
08:09 38.2933 -80.1475 201° Southwest 356 410 38,000  Level Washington Center
08:10 38.2019 -80.1894 200° South 356 410 38,000  Level Washington Center
08:11 38.1125 -80.2342 201° Southwest 356 410 38,000  Level Washington Center
08:12 38.0297 -80.2739 201° Southwest 356 410 38,000  Level Washington Center
08:13 37.9403 -80.3183 201° Southwest 356 410 38,000  Level Washington Center
08:16 37.7311 -80.4161 200° South 357 411 38,000  Level Atlanta Center
08:17 37.6406 -80.4569 200° South 351 404 38,000  Level Atlanta Center
08:18 37.5500 -80.4978 200° South 346 398 38,000  Level Atlanta Center
08:19 37.4617 -80.5408 201° Southwest 346 398 38,000  Level Atlanta Center
08:20 37.3814 -80.5758 199° South 346 398 38,000  Level Atlanta Center
08:21 37.2908 -80.6189 201° Southwest 346 398 38,000  Level Atlanta Center
08:22 37.2003 -80.6594 200° South 346 398 38,000  Level Atlanta Center
08:23 37.1119 -80.7047 202° Southwest 346 398 38,000  Level Atlanta Center
08:24 37.0061 -80.7222 188° South 346 398 38,000  Level Atlanta Center
08:25 36.9064 -80.7342 185° South 353 406 38,000  Level Atlanta Center
08:26 36.8064 -80.7436 184° South 353 406 38,000  Level Atlanta Center
08:27 36.7192 -80.7525 185° South 358 412 38,000  Level Atlanta Center
08:28 36.6089 -80.7647 185° South 363 418 38,000  Level Atlanta Center
08:29 36.5092 -80.7739 184° South 368 423 38,000  Level Atlanta Center
08:30 36.4072 -80.7858 185° South 368 423 38,000  Level Atlanta Center
08:31 36.3056 -80.8003 187° South 368 423 38,000  Level Atlanta Center
08:32 36.2078 -80.8119 185° South 363 418 38,000  Level Atlanta Center
08:33 36.1100 -80.8208 184° South 363 418 38,000  Level Atlanta Center
08:34 36.0100 -80.8300 184° South 368 423 38,000  Level Atlanta Center
08:35 35.9103 -80.8417 185° South 368 423 38,000  Level Atlanta Center
08:36 35.8208 -80.8503 184° South 368 423 38,000  Level Atlanta Center
08:37 35.7231 -80.8592 184° South 368 423 38,000  Level Atlanta Center
08:38 35.6253 -80.8681 184° South 368 423 38,000  Level Atlanta Center
08:39 35.5253 -80.8822 187° South 368 423 38,000  Level Atlanta Center
08:40 35.4192 -80.8914 184° South 363 418 38,000  Level Atlanta Center
08:41 35.3214 -80.9028 185° South 363 418 38,000  Level Atlanta Center
08:42 35.2258 -80.9142 186° South 363 418 38,000  Level Atlanta Center
08:43 35.1278 -80.9228 184° South 363 418 38,000  Level Atlanta Center
08:44 35.0322 -80.9339 185° South 358 412 38,000  Level Atlanta Center
08:45 34.9344 -80.9453 185° South 352 405 38,000  Level Atlanta Center
08:46 34.8469 -80.9536 184° South 352 405 38,000  Level Atlanta Center
08:48 34.5919 -80.9833 185° South 361 415 38,000  Level Jacksonville Center
08:49 34.4897 -80.9906 183° South 372 428 38,000  Level Jacksonville Center
08:50 34.3878 -81.0031 186° South 372 428 38,000  Level Jacksonville Center
08:51 34.2897 -81.0125 185° South 360 414 38,000  Level Jacksonville Center
08:52 34.2022 -81.0219 185° South 349 402 38,000  Level Jacksonville Center
08:53 34.0919 -81.0319 184° South 354 407 38,000  Level Jacksonville Center
08:54 33.9939 -81.0392 183° South 359 413 38,000  Level Jacksonville Center
08:55 33.8939 -81.0511 186° South 364 419 38,000  Level Jacksonville Center
08:56 33.8025 -81.0831 196° South 364 419 38,000  Level Jacksonville Center
08:57 33.7217 -81.1247 203° Southwest 353 406 38,000  Level Jacksonville Center
08:58 33.6328 -81.1689 202° Southwest 353 406 38,000  Level Jacksonville Center
08:59 33.5414 -81.2156 203° Southwest 353 406 38,000  Level Jacksonville Center
09:00 33.4522 -81.2594 202° Southwest 353 406 38,000  Level Jacksonville Center
09:01 33.3611 -81.3033 202° Southwest 353 406 38,000  Level Jacksonville Center
09:02 33.2697 -81.3447 201° Southwest 353 406 38,000  Level Jacksonville Center
09:03 33.1806 -81.3911 204° Southwest 353 406 38,000  Level Jacksonville Center
09:04 33.0914 -81.4347 202° Southwest 353 406 38,000  Level Jacksonville Center
09:05 32.9978 -81.4783 201° Southwest 358 412 38,000  Level Jacksonville Center
09:06 32.9086 -81.5217 202° Southwest 358 412 38,000  Level Jacksonville Center
09:07 32.8172 -81.5653 202° Southwest 358 412 38,000  Level Jacksonville Center
09:08 32.7278 -81.6083 202° Southwest 358 412 38,000  Level Jacksonville Center
09:09 32.6386 -81.6542 203° Southwest 352 405 38,000  Level Jacksonville Center
09:10 32.5389 -81.7000 201° Southwest 352 405 38,000  Level Jacksonville Center
09:11 32.4472 -81.7453 203° Southwest 352 405 38,000  Level Jacksonville Center
09:12 32.3642 -81.7833 201° Southwest 357 411 38,000  Level Jacksonville Center
09:13 32.2622 -81.8311 202° Southwest 357 411 38,000  Level Jacksonville Center
09:14 32.1811 -81.8714 203° Southwest 357 411 38,000  Level Jacksonville Center
09:15 32.0792 -81.9192 202° Southwest 357 411 38,000  Level Jacksonville Center
09:16 31.9856 -81.9642 202° Southwest 357 411 38,000  Level Jacksonville Center
09:17 31.9025 -81.9944 197° South 357 411 38,000  Level Jacksonville Center
09:18 31.7878 -82.0128 188° South 369 425 38,000  Level Jacksonville Center
09:19 31.6856 -82.0308 189° South 369 425 38,000  Level Jacksonville Center
09:20 31.5833 -82.0464 187° South 369 425 38,000  Level Jacksonville Center
09:21 31.4831 -82.0642 189° South 369 425 38,000  Level Jacksonville Center
09:22 31.3789 -82.0797 187° South 375 432 38,000  Level Jacksonville Center
09:23 31.2808 -82.0953 188° South 370 426 38,000  Level Jacksonville Center
09:24 31.1767 -82.1106 187° South 370 426 38,000  Level Jacksonville Center
09:25 31.0744 -82.1286 189° South 370 426 38,000  Level Jacksonville Center
09:26 30.9722 -82.1439 187° South 370 426 38,000  Level Jacksonville Center
09:27 30.8761 -82.1592 188° South 370 426 38,000  Level Jacksonville Center
09:28 30.7719 -82.1744 187° South 370 426 38,000  Level Jacksonville Center
09:29 30.6675 -82.1922 188° South 375 432 38,000 -60 Level Jacksonville Center
09:30 30.5611 -82.2097 188° South 381 438 37,900  Descending Jacksonville Center
09:31 30.4589 -82.2203 185° South 381 438 38,000  Climbing Jacksonville Center
09:32 30.3483 -82.2356 187° South 391 450 38,000  Level Jacksonville Center
09:33 30.2400 -82.2556 189° South 391 450 38,000 -240 Level Jacksonville Center
09:34 30.1292 -82.2731 188° South 396 456 37,600 -1,440 Descending Jacksonville Center
09:35 30.0208 -82.2881 187° South 396 456 35,200 -2,340 Descending Jacksonville Center
09:36 29.9122 -82.3103 190° South 396 456 33,000 -2,220 Descending Jacksonville Center
09:37 29.7997 -82.3278 188° South 403 464 30,900 -2,100 Descending Jacksonville Center
09:38 29.6892 -82.3428 187° South 410 472 28,800 -2,040 Descending Jacksonville Center
09:39 29.5806 -82.3578 187° South 405 466 26,900 -1,500 Descending Jacksonville Center
09:40 29.4761 -82.3464 175° South 393 452 25,900 -900 Descending Jacksonville Center
09:41 29.3697 -82.3350 175° South 387 445 25,100 -1,200 Descending Jacksonville Center
09:42 29.2589 -82.3214 174° South 387 445 23,500 -1,920 Descending Jacksonville Center
09:43 29.1525 -82.3078 174° South 387 445 21,400 -2,040 Descending Jacksonville Center
09:44 29.0522 -82.2964 174° South 381 438 19,400 -1,920 Descending Jacksonville Center
09:45 28.9561 -82.2850 174° South 363 418 17,600 -1,980 Descending Jacksonville Center
09:46 28.8517 -82.2739 175° South 353 406 15,500 -2,100 Descending Jacksonville Center
09:47 28.7597 -82.2625 174° South 342 394 13,400 -1,260 Descending Jacksonville Center
09:48 28.6681 -82.2583 178° South 336 387 13,000 -360 Descending Jacksonville Center
09:49 28.5500 -82.2500 176° South 328 377 12,600 -840 Descending Tampa TRACON
09:50 28.4667 -82.2500 180° South 329 379 11,100 -900 Descending Tampa TRACON
09:51 28.3667 -82.2500 180° South 320 368 10,900 -720 Descending Tampa TRACON
09:52 28.3167 -82.3000 221° Southwest 268 308 9,700 -960 Descending Tampa TRACON
09:53 28.2500 -82.3500 213° Southwest 260 299 9,000 -600 Descending Tampa TRACON
09:54 28.2000 -82.4000 221° Southwest 246 283 8,600 -960 Descending Tampa TRACON
09:55 28.1333 -82.4167 192° South 254 292 7,100 -1,500 Descending Tampa TRACON
09:56 28.0667 -82.4167 180° South 255 293 5,600 -1,080 Descending Tampa TRACON
09:57 27.9833 -82.4167 180° South 251 289 5,000 -300 Descending Tampa TRACON
09:58 27.9167 -82.4167 180° South 254 292 5,000 -420 Level Tampa TRACON
09:59 27.8500 -82.4167 180° South 251 289 4,200 -960 Descending Tampa TRACON
10:00 27.8000 -82.4500 211° Southwest 223 257 3,200 -840 Descending Tampa TRACON
10:01 27.7833 -82.5167 254° West 182 209 2,600 -300 Descending Tampa TRACON
10:02 27.8167 -82.5333 336° Northwest 166 191 2,700  Climbing Tampa TRACON
10:03 27.8500 -82.5500 336° Northwest 146 168 2,600 -600 Descending Tampa TRACON
10:04 27.9000 -82.5500 360° North 133 153 1,500 -960 Descending Tampa TRACON
10:05 27.9333 -82.5500 360° North 124 143 700 -840 Descending Tampa TRACON
10:07 27.9667 -82.5167 350° North  Level FlightAware Approximate
10:14 27.9755 -82.5332 350° North  Level Estimated
10:15 27.9755 -82.5332 350° North  Level Estimated
10:16 27.9755 -82.5332 350° North  Level Estimated